UAL677 KEWR-MDSD

Flight info

Callsign UAL677
Flight time 2h 9m
Altitude 33000
Route EWR5 ELVAE DCT NECCK DCT DIXIE Y481 OHRYN Y488 WEBBB Y488 HOBOH Y488 CHUBY Y488 SAUCR L453 LAMER L453 RODRK DCT POKEG UT17 KOBET
Aircraft B738/M-SDE2E3FGHIRWXY/LB1

Departure

Time 2026-04-24 20:55
Airport Newark Liberty International Airport (KEWR)

Arrival

Time 2026-04-24 23:05
Airport Las Américas International Airport (MDSD)
Time Latitude Longitude Altitude Speed Heading
2026-04-24 20:44 40.68296 -74.18298 21 ft 0 kts
2026-04-24 20:47 40.68293 -74.18298 21 ft 3 kts
2026-04-24 20:47 40.68266 -74.18301 22 ft 4 kts
2026-04-24 20:47 40.68246 -74.18304 24 ft 4 kts 34°
2026-04-24 20:48 40.68239 -74.18325 22 ft 3 kts 95°
2026-04-24 20:48 40.68241 -74.18354 22 ft 3 kts 95°
2026-04-24 20:48 40.68242 -74.18380 25 ft 0 kts 95°
2026-04-24 20:50 40.68241 -74.18353 22 ft 8 kts 95°
2026-04-24 20:50 40.68236 -74.18278 24 ft 8 kts 95°
2026-04-24 20:51 40.68231 -74.18204 24 ft 8 kts 95°
2026-04-24 20:51 40.68237 -74.18132 21 ft 8 kts 88°
2026-04-24 20:51 40.68236 -74.18063 21 ft 7 kts 94°
2026-04-24 20:51 40.68226 -74.17979 22 ft 13 kts 107°
2026-04-24 20:52 40.68187 -74.17867 21 ft 13 kts 127°
2026-04-24 20:52 40.68106 -74.17864 21 ft 13 kts 204°
2026-04-24 20:52 40.68027 -74.17914 21 ft 13 kts 206°
2026-04-24 20:52 40.67949 -74.17964 21 ft 12 kts 206°
2026-04-24 20:53 40.67874 -74.18011 21 ft 12 kts 205°
2026-04-24 20:53 40.67802 -74.18057 22 ft 12 kts 205°
2026-04-24 20:53 40.67730 -74.18102 22 ft 11 kts 207°
2026-04-24 20:53 40.67658 -74.18124 21 ft 11 kts 160°
2026-04-24 20:54 40.67605 -74.18055 23 ft 11 kts 131°
2026-04-24 20:54 40.67563 -74.17977 23 ft 10 kts 110°
2026-04-24 20:54 40.67598 -74.17907 22 ft 11 kts 25°
2026-04-24 20:54 40.67821 -74.17766 20 ft 70 kts 26°
2026-04-24 20:55 40.68465 -74.17356 23 ft 133 kts 25°
2026-04-24 20:55 40.69463 -74.16733 73 ft 180 kts 26°
2026-04-24 20:55 40.70619 -74.16055 838 ft 177 kts 30°
2026-04-24 20:55 40.71613 -74.15068 1595 ft 180 kts 44°
2026-04-24 20:56 40.72559 -74.13873 2091 ft 201 kts 43°
2026-04-24 20:56 40.73646 -74.12539 2329 ft 224 kts 41°
2026-04-24 20:56 40.74834 -74.11085 2642 ft 244 kts 43°
2026-04-24 20:56 40.76303 -74.09855 3013 ft 259 kts 11°
2026-04-24 20:57 40.78063 -74.10014 3781 ft 255 kts 334°
2026-04-24 20:57 40.79386 -74.11457 4588 ft 254 kts 299°
2026-04-24 20:57 40.79892 -74.13709 5430 ft 253 kts 278°
2026-04-24 20:57 40.80112 -74.15994 6389 ft 250 kts 278°
2026-04-24 20:58 40.80372 -74.18285 7101 ft 254 kts 282°
2026-04-24 20:58 40.80704 -74.20537 7897 ft 252 kts 284°
2026-04-24 20:58 40.80929 -74.22804 8850 ft 253 kts 270°
2026-04-24 20:58 40.80345 -74.25052 9654 ft 273 kts 245°
2026-04-24 20:59 40.78908 -74.26850 10285 ft 303 kts 220°
2026-04-24 20:59 40.76863 -74.28018 10515 ft 337 kts 207°
2026-04-24 20:59 40.74557 -74.29036 10635 ft 362 kts 206°
2026-04-24 20:59 40.72089 -74.30098 10851 ft 381 kts 206°
2026-04-24 21:00 40.69547 -74.31228 11293 ft 390 kts 206°
2026-04-24 21:00 40.66974 -74.32400 12010 ft 391 kts 206°
2026-04-24 21:00 40.64398 -74.33587 12671 ft 394 kts 206°
2026-04-24 21:00 40.61768 -74.34713 13252 ft 405 kts 198°
2026-04-24 21:01 40.58902 -74.34973 13834 ft 421 kts 181°
2026-04-24 21:01 40.55974 -74.34422 14453 ft 428 kts 171°
2026-04-24 21:01 40.53085 -74.33368 15063 ft 434 kts 164°
2026-04-24 21:01 40.50304 -74.31753 15612 ft 441 kts 153°
2026-04-24 21:02 40.40253 -74.23398 17983 ft 448 kts 149°
2026-04-24 21:02 40.33645 -74.18033 19117 ft 456 kts 157°
2026-04-24 21:02 40.30658 -74.16637 19472 ft 457 kts 171°
2026-04-24 21:02 40.27532 -74.15988 19937 ft 453 kts 181°
2026-04-24 21:03 40.21077 -74.16172 20913 ft 453 kts 187°
2026-04-24 21:03 40.15891 -74.16122 21597 ft 466 kts 173°
2026-04-24 21:03 40.12851 -74.14672 21934 ft 479 kts 150°
2026-04-24 21:03 40.10242 -74.11877 22386 ft 482 kts 131°
2026-04-24 21:04 40.08353 -74.08339 22799 ft 482 kts 114°
2026-04-24 21:04 40.07132 -74.03615 23249 ft 480 kts 101°
2026-04-24 21:04 40.01311 -73.73975 25083 ft 508 kts 101°
2026-04-24 21:04 39.93916 -73.38004 27637 ft 519 kts 101°
2026-04-24 21:05 39.86168 -73.01322 29971 ft 527 kts 100°
2026-04-24 21:05 39.82042 -72.81903 31180 ft 527 kts 102°
2026-04-24 21:05 39.80245 -72.74839 31689 ft 527 kts 105°
2026-04-24 21:05 39.78995 -72.70366 32014 ft 526 kts 105°
2026-04-24 21:06 39.77735 -72.65907 32298 ft 525 kts 105°
2026-04-24 21:06 39.76492 -72.61444 32564 ft 525 kts 105°
2026-04-24 21:06 39.75271 -72.56974 32787 ft 526 kts 105°
2026-04-24 21:06 39.74056 -72.52474 32900 ft 529 kts 104°
2026-04-24 21:07 39.66697 -72.25703 32936 ft 528 kts 105°
2026-04-24 21:07 39.63347 -72.17221 32980 ft 539 kts 123°
2026-04-24 21:08 39.60680 -72.13049 33183 ft 542 kts 133°
2026-04-24 21:08 39.56116 -72.06831 33653 ft 540 kts 133°
2026-04-24 21:08 39.53521 -72.03317 33940 ft 539 kts 133°
2026-04-24 21:08 39.50940 -71.99794 34244 ft 536 kts 133°
2026-04-24 21:09 39.48398 -71.96289 34570 ft 532 kts 133°
2026-04-24 21:09 39.45880 -71.92796 34898 ft 529 kts 133°
2026-04-24 21:09 39.33556 -71.75671 35039 ft 538 kts 133°
2026-04-24 21:10 39.24040 -71.62573 34877 ft 526 kts 135°
2026-04-24 21:10 39.21230 -71.59616 34915 ft 520 kts 152°
2026-04-24 21:10 39.18044 -71.57642 34938 ft 511 kts 166°
2026-04-24 21:11 39.14620 -71.56515 34929 ft 505 kts 179°
2026-04-24 21:11 39.08463 -71.56162 34989 ft 503 kts 185°
2026-04-24 21:11 38.91350 -71.55353 35016 ft 517 kts 184°
2026-04-24 21:11 38.87390 -71.55012 34934 ft 510 kts 183°
2026-04-24 21:12 38.81364 -71.54548 34892 ft 498 kts 185°
2026-04-24 21:12 38.70476 -71.53930 34863 ft 487 kts 185°
2026-04-24 21:12 38.56790 -71.53467 34901 ft 481 kts 195°
2026-04-24 21:13 38.50110 -71.55654 34907 ft 466 kts 212°
2026-04-24 21:13 38.30074 -71.66284 34946 ft 482 kts 211°
2026-04-24 21:13 38.21321 -71.70706 34872 ft 480 kts 210°
2026-04-24 21:14 38.07438 -71.77725 34849 ft 464 kts 211°
2026-04-24 21:14 37.86580 -71.88415 34835 ft 449 kts 210°
2026-04-24 21:14 37.80404 -71.91527 34883 ft 451 kts 210°
2026-04-24 21:15 37.66917 -71.98365 34988 ft 460 kts 211°
2026-04-24 21:15 37.50327 -72.07928 34913 ft 471 kts 213°
2026-04-24 21:15 37.23384 -72.23662 34814 ft 464 kts 212°
2026-04-24 21:16 37.07589 -72.32756 34815 ft 450 kts 212°
2026-04-24 21:16 36.91852 -72.41802 34821 ft 443 kts 212°
2026-04-24 21:16 36.77670 -72.49987 34964 ft 453 kts 212°
2026-04-24 21:16 36.72771 -72.52588 34929 ft 466 kts 202°
2026-04-24 21:17 36.69515 -72.53274 34892 ft 481 kts 188°
2026-04-24 21:17 36.66143 -72.53049 34863 ft 492 kts 174°
2026-04-24 21:17 36.45914 -72.46280 34764 ft 493 kts 169°
2026-04-24 21:18 36.06183 -72.33410 34834 ft 483 kts 172°
2026-04-24 21:18 35.97156 -72.32637 34892 ft 478 kts 187°
2026-04-24 21:19 35.70764 -72.33288 34933 ft 493 kts 186°
2026-04-24 21:19 35.63558 -72.33377 34858 ft 489 kts 186°
2026-04-24 21:19 35.48232 -72.33411 34759 ft 472 kts 186°
2026-04-24 21:19 35.40161 -72.33557 34835 ft 465 kts 187°
2026-04-24 21:20 35.08814 -72.34031 34980 ft 470 kts 187°
2026-04-24 21:20 35.03139 -72.34114 34911 ft 477 kts 187°
2026-04-24 21:21 34.78337 -72.37260 34792 ft 466 kts 194°
2026-04-24 21:21 34.69202 -72.38036 34864 ft 470 kts 180°
2026-04-24 21:22 34.33600 -72.33920 34887 ft 463 kts 181°
2026-04-24 21:22 33.96677 -72.29971 34914 ft 473 kts 174°
2026-04-24 21:23 33.28556 -72.11056 34864 ft 481 kts 172°
2026-04-24 21:23 33.04741 -72.04716 34907 ft 466 kts 171°
2026-04-24 21:24 32.79334 -71.97933 34956 ft 456 kts 171°
2026-04-24 21:24 32.64601 -71.93957 35081 ft 467 kts 171°
2026-04-24 21:24 32.58636 -71.92360 34995 ft 475 kts 170°
2026-04-24 21:25 32.22725 -71.82810 34891 ft 462 kts 171°
2026-04-24 21:25 32.04406 -71.77971 35001 ft 453 kts 171°
2026-04-24 21:25 31.87340 -71.73502 35102 ft 462 kts 171°
2026-04-24 21:26 31.83500 -71.72496 35065 ft 468 kts 171°
2026-04-24 21:26 31.46960 -71.62932 34966 ft 462 kts 171°
2026-04-24 21:27 31.36423 -71.60189 34979 ft 451 kts 171°
2026-04-24 21:27 31.30236 -71.58599 35013 ft 458 kts 171°
2026-04-24 21:28 31.23972 -71.56985 35013 ft 462 kts 172°
2026-04-24 21:28 31.17692 -71.55361 35003 ft 462 kts 172°
2026-04-24 21:29 31.11422 -71.53740 35007 ft 461 kts 172°
2026-04-24 21:29 31.05203 -71.52135 35015 ft 459 kts 172°
2026-04-24 21:30 30.98960 -71.50527 35002 ft 458 kts 172°
2026-04-24 21:30 30.92742 -71.48928 35022 ft 456 kts 173°
2026-04-24 21:31 30.86551 -71.47338 35022 ft 455 kts 173°
2026-04-24 21:31 30.80411 -71.45763 35016 ft 454 kts 173°
2026-04-24 21:32 30.74251 -71.44186 35016 ft 453 kts 173°
2026-04-24 21:32 30.69095 -71.42867 35015 ft 452 kts 173°
2026-04-24 21:33 30.62962 -71.41300 35018 ft 451 kts 173°
2026-04-24 21:33 30.56836 -71.39736 35017 ft 450 kts 173°
2026-04-24 21:34 30.50776 -71.38191 35022 ft 449 kts 173°
2026-04-24 21:34 30.44672 -71.36637 35027 ft 448 kts 173°
2026-04-24 21:35 30.38589 -71.35091 35025 ft 447 kts 173°
2026-04-24 21:35 30.32528 -71.33552 35022 ft 445 kts 173°
2026-04-24 21:36 30.26483 -71.32019 35029 ft 444 kts 173°
2026-04-24 21:36 30.20450 -71.30491 35032 ft 443 kts 174°
2026-04-24 21:37 30.14435 -71.28969 35011 ft 442 kts 174°
2026-04-24 21:37 30.08423 -71.27451 35028 ft 441 kts 174°
2026-04-24 21:38 30.02411 -71.25935 35034 ft 441 kts 174°
2026-04-24 21:38 29.96448 -71.24432 35034 ft 442 kts 174°
2026-04-24 21:39 29.90428 -71.22918 35035 ft 443 kts 174°
2026-04-24 21:39 29.84405 -71.21403 35032 ft 443 kts 174°
2026-04-24 21:40 29.78368 -71.19887 35027 ft 444 kts 174°
2026-04-24 21:40 29.72331 -71.18373 35030 ft 443 kts 174°
2026-04-24 21:41 29.66302 -71.16863 35026 ft 443 kts 174°
2026-04-24 21:41 29.60275 -71.15355 35031 ft 443 kts 174°
2026-04-24 21:42 29.54295 -71.13861 35025 ft 442 kts 174°
2026-04-24 21:42 29.48284 -71.12360 35028 ft 441 kts 174°
2026-04-24 21:43 29.42287 -71.10866 35032 ft 440 kts 175°
2026-04-24 21:43 29.36300 -71.09375 35034 ft 440 kts 175°
2026-04-24 21:44 29.30321 -71.07889 35033 ft 439 kts 175°
2026-04-24 21:44 29.24349 -71.06406 35045 ft 439 kts 175°
2026-04-24 21:45 29.18371 -71.04923 35031 ft 439 kts 175°
2026-04-24 21:45 29.12436 -71.03453 35029 ft 439 kts 175°
2026-04-24 21:46 29.06464 -71.01975 35034 ft 439 kts 175°
2026-04-24 21:46 29.00497 -71.00500 35015 ft 439 kts 175°
2026-04-24 21:47 28.94523 -70.99024 35035 ft 439 kts 175°
2026-04-24 21:47 28.88531 -70.97546 35035 ft 440 kts 175°
2026-04-24 21:48 28.82545 -70.96073 35029 ft 440 kts 175°
2026-04-24 21:48 28.76545 -70.94598 35034 ft 441 kts 175°
2026-04-24 21:49 28.70547 -70.93125 35023 ft 441 kts 175°
2026-04-24 21:49 28.64577 -70.91660 35032 ft 441 kts 175°
2026-04-24 21:50 28.58575 -70.90189 35035 ft 442 kts 175°
2026-04-24 21:50 28.52556 -70.88715 35033 ft 442 kts 175°
2026-04-24 21:51 28.46544 -70.87244 35024 ft 441 kts 176°
2026-04-24 21:51 28.40538 -70.85777 35027 ft 441 kts 176°
2026-04-24 21:52 28.34572 -70.84322 35030 ft 441 kts 176°
2026-04-24 21:52 28.28574 -70.82861 35029 ft 441 kts 176°
2026-04-24 21:53 28.22575 -70.81401 35033 ft 441 kts 176°
2026-04-24 21:53 28.16578 -70.79943 35029 ft 441 kts 176°
2026-04-24 21:54 28.10583 -70.78487 35027 ft 440 kts 176°
2026-04-24 21:54 28.04587 -70.77032 35030 ft 440 kts 176°
2026-04-24 21:55 27.98597 -70.75581 35027 ft 440 kts 176°
2026-04-24 21:55 27.92610 -70.74132 35030 ft 440 kts 176°
2026-04-24 21:56 27.86626 -70.72686 35031 ft 440 kts 176°
2026-04-24 21:56 27.80653 -70.71243 35026 ft 439 kts 177°
2026-04-24 21:57 27.74716 -70.69811 35028 ft 438 kts 177°
2026-04-24 21:57 27.68750 -70.68374 35031 ft 438 kts 177°
2026-04-24 21:58 27.62787 -70.66939 35031 ft 438 kts 177°
2026-04-24 21:58 27.56825 -70.65506 35004 ft 438 kts 177°
2026-04-24 21:59 27.50883 -70.64078 35012 ft 436 kts 178°
2026-04-24 21:59 27.44962 -70.62657 35026 ft 434 kts 178°
2026-04-24 22:00 27.39098 -70.61251 35029 ft 433 kts 178°
2026-04-24 22:00 27.33214 -70.59843 35031 ft 431 kts 178°
2026-04-24 22:01 27.27348 -70.58441 35008 ft 430 kts 178°
2026-04-24 22:01 27.21500 -70.57045 35029 ft 429 kts 177°
2026-04-24 22:02 27.15663 -70.55652 35022 ft 428 kts 177°
2026-04-24 22:02 27.09834 -70.54264 35013 ft 428 kts 177°
2026-04-24 22:03 27.04009 -70.52878 35020 ft 428 kts 177°
2026-04-24 22:03 26.98174 -70.51491 35023 ft 429 kts 177°
2026-04-24 22:04 26.92328 -70.50103 35018 ft 429 kts 176°
2026-04-24 22:04 26.86506 -70.48721 35023 ft 430 kts 176°
2026-04-24 22:05 26.80642 -70.47331 35022 ft 431 kts 176°
2026-04-24 22:05 26.74768 -70.45940 35022 ft 432 kts 176°
2026-04-24 22:06 26.68887 -70.44549 35022 ft 432 kts 176°
2026-04-24 22:06 26.62994 -70.43155 35010 ft 431 kts 177°
2026-04-24 22:07 26.57125 -70.41769 35018 ft 430 kts 177°
2026-04-24 22:07 26.51312 -70.40398 35017 ft 429 kts 177°
2026-04-24 22:08 26.45469 -70.39022 35017 ft 428 kts 177°
2026-04-24 22:08 26.39645 -70.37651 35018 ft 427 kts 177°
2026-04-24 22:09 26.33828 -70.36284 35023 ft 427 kts 177°
2026-04-24 22:09 26.28020 -70.34921 35015 ft 426 kts 177°
2026-04-24 22:10 26.22214 -70.33559 35021 ft 426 kts 177°
2026-04-24 22:10 26.16418 -70.32201 35018 ft 426 kts 177°
2026-04-24 22:11 26.10617 -70.30843 35016 ft 426 kts 177°
2026-04-24 22:11 26.04812 -70.29485 35006 ft 426 kts 178°
2026-04-24 22:12 25.99044 -70.28138 35016 ft 426 kts 178°
2026-04-24 22:12 25.93228 -70.26780 35017 ft 427 kts 178°
2026-04-24 22:13 25.87409 -70.25424 35016 ft 427 kts 178°
2026-04-24 22:13 25.81585 -70.24067 35014 ft 428 kts 178°
2026-04-24 22:14 25.75755 -70.22711 35003 ft 428 kts 176°
2026-04-24 22:14 25.69927 -70.21355 35009 ft 428 kts 176°
2026-04-24 22:15 25.64130 -70.20009 34996 ft 428 kts 176°
2026-04-24 22:15 25.58286 -70.18653 35011 ft 429 kts 176°
2026-04-24 22:16 25.52442 -70.17299 35012 ft 430 kts 176°
2026-04-24 22:16 25.46573 -70.15940 34989 ft 430 kts 176°
2026-04-24 22:17 25.40749 -70.14592 35003 ft 431 kts 176°
2026-04-24 22:17 25.34876 -70.13235 35013 ft 431 kts 176°
2026-04-24 22:18 25.28993 -70.11877 35009 ft 432 kts 176°
2026-04-24 22:18 25.23095 -70.10516 35012 ft 433 kts 176°
2026-04-24 22:19 25.17186 -70.09154 34998 ft 433 kts 176°
2026-04-24 22:19 25.12288 -70.08026 35008 ft 432 kts 176°
2026-04-24 22:20 25.05561 -70.06478 35008 ft 431 kts 176°
2026-04-24 22:20 24.99693 -70.05187 35007 ft 426 kts 180°
2026-04-24 22:21 24.94800 -70.04889 35008 ft 419 kts 185°
2026-04-24 22:21 24.88980 -70.04663 35009 ft 418 kts 185°
2026-04-24 22:22 24.83203 -70.04417 34998 ft 417 kts 185°
2026-04-24 22:22 24.77413 -70.04153 35001 ft 416 kts 184°
2026-04-24 22:23 24.71627 -70.03885 35005 ft 415 kts 184°
2026-04-24 22:23 24.65861 -70.03618 35005 ft 414 kts 184°
2026-04-24 22:24 24.60094 -70.03352 35005 ft 414 kts 184°
2026-04-24 22:24 24.54335 -70.03086 35002 ft 414 kts 184°
2026-04-24 22:25 24.48578 -70.02821 35000 ft 414 kts 184°
2026-04-24 22:25 24.42811 -70.02555 35002 ft 415 kts 184°
2026-04-24 22:26 24.37036 -70.02290 35005 ft 416 kts 184°
2026-04-24 22:26 24.31278 -70.02025 35002 ft 416 kts 184°
2026-04-24 22:27 24.25483 -70.01758 34988 ft 417 kts 184°
2026-04-24 22:27 24.19680 -70.01491 34999 ft 418 kts 184°
2026-04-24 22:28 24.13867 -70.01336 35006 ft 417 kts 186°
2026-04-24 22:28 24.10971 -70.01377 35187 ft 416 kts 187°
2026-04-24 22:28 24.08086 -70.01437 35508 ft 412 kts 187°
2026-04-24 22:28 24.05234 -70.01494 35836 ft 408 kts 188°
2026-04-24 22:29 23.99562 -70.01589 36185 ft 409 kts 188°
2026-04-24 22:29 23.93838 -70.01666 36257 ft 415 kts 188°
2026-04-24 22:30 23.90939 -70.01700 36370 ft 416 kts 188°
2026-04-24 22:30 23.88086 -70.01729 36591 ft 414 kts 188°
2026-04-24 22:30 23.85212 -70.01757 36834 ft 412 kts 188°
2026-04-24 22:30 23.82342 -70.01785 36983 ft 412 kts 188°
2026-04-24 22:31 23.76561 -70.01848 36996 ft 415 kts 188°
2026-04-24 22:31 23.70803 -70.01906 36990 ft 413 kts 188°
2026-04-24 22:32 23.65078 -70.01963 36980 ft 410 kts 189°
2026-04-24 22:32 23.59381 -70.02022 36986 ft 408 kts 189°
2026-04-24 22:33 23.53701 -70.02082 36994 ft 407 kts 189°
2026-04-24 22:33 23.48039 -70.02142 36995 ft 407 kts 189°
2026-04-24 22:34 23.42373 -70.02203 36991 ft 407 kts 189°
2026-04-24 22:34 23.36698 -70.02261 36990 ft 408 kts 189°
2026-04-24 22:35 23.31008 -70.02320 36991 ft 410 kts 189°
2026-04-24 22:35 23.25333 -70.02379 36990 ft 411 kts 189°
2026-04-24 22:36 23.19607 -70.02438 36993 ft 412 kts 189°
2026-04-24 22:36 23.13860 -70.02499 36993 ft 413 kts 189°
2026-04-24 22:37 23.08106 -70.02559 36989 ft 414 kts 189°
2026-04-24 22:37 23.02353 -70.02617 36982 ft 413 kts 189°
2026-04-24 22:38 22.96607 -70.02676 36982 ft 412 kts 189°
2026-04-24 22:38 22.90874 -70.02736 36990 ft 412 kts 189°
2026-04-24 22:39 22.85140 -70.02795 36989 ft 411 kts 189°
2026-04-24 22:39 22.79415 -70.02855 36987 ft 411 kts 189°
2026-04-24 22:40 22.73703 -70.02913 36987 ft 410 kts 189°
2026-04-24 22:40 22.67992 -70.02972 36984 ft 410 kts 189°
2026-04-24 22:41 22.62290 -70.03031 36986 ft 410 kts 189°
2026-04-24 22:41 22.56622 -70.03089 36988 ft 410 kts 189°
2026-04-24 22:42 22.50913 -70.03148 36985 ft 410 kts 189°
2026-04-24 22:42 22.45207 -70.03207 36957 ft 410 kts 189°
2026-04-24 22:43 22.39508 -70.03266 36977 ft 410 kts 189°
2026-04-24 22:43 22.33798 -70.03324 36988 ft 410 kts 189°
2026-04-24 22:44 22.28093 -70.03383 36987 ft 410 kts 189°
2026-04-24 22:44 22.22372 -70.03441 36987 ft 411 kts 189°
2026-04-24 22:45 22.16650 -70.03493 36988 ft 411 kts 189°
2026-04-24 22:45 21.95446 -70.03705 36975 ft 412 kts 189°
2026-04-24 22:46 21.49584 -70.04189 36955 ft 412 kts 189°
2026-04-24 22:46 21.03541 -70.04662 36966 ft 415 kts 188°
2026-04-24 22:47 20.85303 -70.04862 36859 ft 418 kts 187°
2026-04-24 22:47 20.75198 -70.04933 36994 ft 418 kts 187°
2026-04-24 22:47 20.51927 -70.05186 34796 ft 424 kts 187°
2026-04-24 22:47 20.28278 -70.05440 29116 ft 441 kts 185°
2026-04-24 22:48 20.22744 -70.05459 27856 ft 430 kts 185°
2026-04-24 22:48 20.19760 -70.05378 27310 ft 430 kts 179°
2026-04-24 22:48 20.16809 -70.04849 26803 ft 431 kts 172°
2026-04-24 22:48 20.13952 -70.03913 26383 ft 431 kts 163°
2026-04-24 22:49 20.09753 -70.01941 25762 ft 436 kts 162°
2026-04-24 22:49 19.88697 -69.91948 22434 ft 435 kts 161°
2026-04-24 22:49 19.80387 -69.88046 20961 ft 416 kts 160°
2026-04-24 22:49 19.60097 -69.78514 17904 ft 390 kts 159°
2026-04-24 22:50 19.47491 -69.72629 15754 ft 388 kts 161°
2026-04-24 22:50 19.45004 -69.71848 15343 ft 383 kts 171°
2026-04-24 22:50 19.42419 -69.71538 14975 ft 376 kts 179°
2026-04-24 22:50 19.39821 -69.71421 14605 ft 373 kts 180°
2026-04-24 22:51 19.37242 -69.71318 14251 ft 369 kts 180°
2026-04-24 22:51 19.34677 -69.71212 13896 ft 367 kts 179°
2026-04-24 22:51 19.32121 -69.71100 13520 ft 368 kts 179°
2026-04-24 22:51 19.29561 -69.70980 13126 ft 367 kts 179°
2026-04-24 22:52 19.27024 -69.70856 12737 ft 363 kts 179°
2026-04-24 22:52 19.24516 -69.70732 12371 ft 360 kts 179°
2026-04-24 22:52 19.22037 -69.70608 11998 ft 351 kts 179°
2026-04-24 22:52 19.19645 -69.70488 11643 ft 337 kts 179°
2026-04-24 22:53 19.17332 -69.70371 11327 ft 330 kts 179°
2026-04-24 22:53 19.15048 -69.70257 11012 ft 327 kts 179°
2026-04-24 22:53 19.12791 -69.70145 10696 ft 323 kts 179°
2026-04-24 22:53 19.10551 -69.70037 10381 ft 321 kts 179°
2026-04-24 22:54 19.08348 -69.69926 10059 ft 312 kts 178°
2026-04-24 22:54 19.06223 -69.69816 9915 ft 296 kts 178°
2026-04-24 22:54 19.04247 -69.69729 9812 ft 284 kts 180°
2026-04-24 22:54 19.02229 -69.69708 9226 ft 291 kts 181°
2026-04-24 22:55 19.00202 -69.69707 8869 ft 292 kts 181°
2026-04-24 22:55 18.98177 -69.69700 8597 ft 290 kts 181°
2026-04-24 22:55 18.96163 -69.69691 8301 ft 288 kts 181°
2026-04-24 22:55 18.94161 -69.69679 8014 ft 287 kts 180°
2026-04-24 22:56 18.92177 -69.69665 7726 ft 285 kts 181°
2026-04-24 22:56 18.90198 -69.69652 7424 ft 283 kts 181°
2026-04-24 22:56 18.88234 -69.69644 7149 ft 282 kts 182°
2026-04-24 22:56 18.86286 -69.69810 6867 ft 280 kts 188°
2026-04-24 22:57 18.84365 -69.70079 6579 ft 276 kts 189°
2026-04-24 22:57 18.82488 -69.70369 6325 ft 271 kts 191°
2026-04-24 22:57 18.80619 -69.70665 6044 ft 271 kts 188°
2026-04-24 22:57 18.78751 -69.70919 5738 ft 271 kts 187°
2026-04-24 22:58 18.76903 -69.71161 5498 ft 263 kts 187°
2026-04-24 22:58 18.75134 -69.71393 5217 ft 256 kts 187°
2026-04-24 22:58 18.73371 -69.71626 4944 ft 247 kts 187°
2026-04-24 22:58 18.71727 -69.71844 4685 ft 236 kts 187°
2026-04-24 22:59 18.70119 -69.72057 4451 ft 225 kts 187°
2026-04-24 22:59 18.68600 -69.72258 4247 ft 216 kts 187°
2026-04-24 22:59 18.65792 -69.72629 3807 ft 201 kts 186°
2026-04-24 23:00 18.64431 -69.72809 3605 ft 193 kts 186°
2026-04-24 23:00 18.63117 -69.72983 3416 ft 188 kts 186°
2026-04-24 23:00 18.61830 -69.73152 3243 ft 185 kts 186°
2026-04-24 23:00 18.60551 -69.73320 3065 ft 185 kts 185°
2026-04-24 23:01 18.59289 -69.73142 2852 ft 185 kts 158°
2026-04-24 23:01 18.58097 -69.72642 2679 ft 185 kts 161°
2026-04-24 23:01 18.56884 -69.72199 2488 ft 185 kts 161°
2026-04-24 23:01 18.55673 -69.71757 2291 ft 184 kts 161°
2026-04-24 23:02 18.54465 -69.71314 2094 ft 183 kts 161°
2026-04-24 23:02 18.53277 -69.70878 1924 ft 175 kts 161°
2026-04-24 23:02 18.52167 -69.70470 1775 ft 165 kts 161°
2026-04-24 23:02 18.51101 -69.70078 1543 ft 158 kts 161°
2026-04-24 23:03 18.50088 -69.69704 1339 ft 153 kts 161°
2026-04-24 23:03 18.49086 -69.69336 1125 ft 154 kts 161°
2026-04-24 23:03 18.48070 -69.68963 941 ft 154 kts 161°
2026-04-24 23:03 18.47055 -69.68591 731 ft 155 kts 161°
2026-04-24 23:04 18.46037 -69.68216 504 ft 155 kts 161°
2026-04-24 23:04 18.45019 -69.67841 267 ft 154 kts 161°
2026-04-24 23:04 18.44020 -69.67475 70 ft 149 kts 161°
2026-04-24 23:04 18.43177 -69.67167 62 ft 99 kts 160°
2026-04-24 23:05 18.42728 -69.67002 65 ft 47 kts 160°
2026-04-24 23:05 18.42435 -69.66892 66 ft 42 kts 161°
2026-04-24 23:05 18.42257 -69.66799 62 ft 15 kts 159°
2026-04-24 23:05 18.42233 -69.66824 67 ft 4 kts 310°
2026-04-24 23:06 18.42256 -69.66832 65 ft 6 kts 341°
2026-04-24 23:06 18.42322 -69.66855 63 ft 13 kts 341°
2026-04-24 23:06 18.42420 -69.66889 66 ft 16 kts 341°
2026-04-24 23:06 18.42526 -69.66928 65 ft 16 kts 340°
2026-04-24 23:07 18.42637 -69.66966 67 ft 18 kts 344°
2026-04-24 23:07 18.42764 -69.67015 61 ft 23 kts 340°
2026-04-24 23:07 18.42903 -69.67067 66 ft 16 kts 338°
2026-04-24 23:07 18.42952 -69.67169 64 ft 18 kts 274°
2026-04-24 23:08 18.42958 -69.67303 58 ft 17 kts 249°
2026-04-24 23:08 18.42857 -69.67341 62 ft 16 kts 200°
2026-04-24 23:08 18.42797 -69.67436 60 ft 15 kts 253°
2026-04-24 23:08 18.42813 -69.67487 66 ft 4 kts
2026-04-24 23:09 18.42837 -69.67483 66 ft 1 kts
2026-04-24 23:09 18.42838 -69.67483 63 ft 0 kts